• en France
  • Liste des pays
  • À 7 jours
  • Température de l'eau
  • Carte satellitaire
  • Carte météo
  • Widgets météo
  • user-avatar
    Se connecter

    Météo par heure à Bayramaul

    Ce jour, 17 Octobre, Mercredi

    Heure Température Précipitation Vent Pression Humidité
    00:00 +16°C° 0 mm 3 m/s 766 mmHg 84%
    01:00 +14°C° 0 mm 3 m/s 766 mmHg 84%
    02:00 +14°C° 0 mm 3 m/s 766 mmHg 84%
    03:00 +14°C° 0 mm 3 m/s 766 mmHg 83%
    04:00 +14°C° 0 mm 3 m/s 766 mmHg 83%
    05:00 +14°C° 0 mm 3 m/s 765 mmHg 83%
    06:00 +14°C° 0 mm 3 m/s 765 mmHg 83%
    07:00 +17°C° 0 mm 3 m/s 765 mmHg 75%
    08:00 +19°C° 0 mm 4 m/s 765 mmHg 67%
    09:00 +21°C° 0 mm 4 m/s 765 mmHg 59%
    10:00 +22°C° 0 mm 5 m/s 765 mmHg 56%
    11:00 +23°C° 0 mm 5 m/s 765 mmHg 53%
    12:00 +25°C° 0 mm 5 m/s 764 mmHg 51%
    13:00 +24°C° 0 mm 6 m/s 764 mmHg 53%
    14:00 +23°C° 0 mm 6 m/s 764 mmHg 56%
    15:00 +23°C° 0 mm 6 m/s 764 mmHg 59%
    16:00 +21°C° 0 mm 5 m/s 763 mmHg 67%
    17:00 +19°C° 0 mm 5 m/s 763 mmHg 76%
    18:00 +18°C° 0 mm 4 m/s 763 mmHg 84%
    19:00 +17°C° 0 mm 4 m/s 763 mmHg 86%
    20:00 +17°C° 0 mm 3 m/s 764 mmHg 87%
    21:00 +16°C° 0 mm 3 m/s 764 mmHg 89%
    22:00 +16°C° 0 mm 3 m/s 763 mmHg 89%
    23:00 +16°C° 0 mm 3 m/s 763 mmHg 89%

    Demain, 18 Octobre, Jeudi

    Heure Température Précipitation Vent Pression Humidité
    00:00 +16°C° 0 mm 3 m/s 763 mmHg 89%
    01:00 +15°C° 0 mm 2 m/s 763 mmHg 88%
    02:00 +15°C° 0 mm 2 m/s 763 mmHg 88%
    03:00 +15°C° 0 mm 2 m/s 763 mmHg 87%
    04:00 +15°C° 0 mm 2 m/s 763 mmHg 86%
    05:00 +15°C° 0 mm 2 m/s 763 mmHg 85%
    06:00 +15°C° 0 mm 2 m/s 763 mmHg 84%
    07:00 +16°C° 0 mm 2 m/s 763 mmHg 77%
    08:00 +18°C° 0 mm 2 m/s 763 mmHg 71%
    09:00 +20°C° 0 mm 2 m/s 763 mmHg 64%
    10:00 +21°C° 0 mm 3 m/s 763 mmHg 59%
    11:00 +24°C° 0 mm 3 m/s 763 mmHg 54%
    12:00 +25°C° 0 mm 3 m/s 763 mmHg 49%
    13:00 +25°C° 0 mm 4 m/s 762 mmHg 50%
    14:00 +23°C° 0 mm 4 m/s 762 mmHg 52%
    15:00 +23°C° 0 mm 4 m/s 762 mmHg 54%
    16:00 +21°C° 0 mm 4 m/s 762 mmHg 65%
    17:00 +19°C° 0 mm 4 m/s 762 mmHg 75%
    18:00 +18°C° 0 mm 3 m/s 762 mmHg 85%
    19:00 +17°C° 0 mm 3 m/s 763 mmHg 87%
    20:00 +17°C° 0 mm 3 m/s 763 mmHg 88%
    21:00 +17°C° 0 mm 3 m/s 763 mmHg 90%
    22:00 +16°C° 0 mm 3 m/s 763 mmHg 89%
    23:00 +16°C° 0 mm 3 m/s 763 mmHg 88%

    Après-demain, 19 Octobre, Vendredi

    Heure Température Précipitation Vent Pression Humidité
    00:00 +16°C° 0 mm 3 m/s 763 mmHg 87%
    01:00 +16°C° 0 mm 3 m/s 762 mmHg 85%
    02:00 +16°C° 0 mm 3 m/s 762 mmHg 83%
    03:00 +15°C° 0 mm 4 m/s 762 mmHg 81%
    04:00 +15°C° 0 mm 4 m/s 762 mmHg 80%
    05:00 +15°C° 0 mm 4 m/s 762 mmHg 78%
    06:00 +15°C° 0 mm 4 m/s 762 mmHg 76%
    07:00 +18°C° 0 mm 4 m/s 762 mmHg 69%
    08:00 +19°C° 0 mm 4 m/s 762 mmHg 63%
    09:00 +21°C° 0 mm 5 m/s 762 mmHg 56%
    10:00 +22°C° 0 mm 5 m/s 762 mmHg 53%
    11:00 +23°C° 0 mm 6 m/s 762 mmHg 50%
    12:00 +24°C° 0 mm 6 m/s 761 mmHg 47%
    13:00 +24°C° 0 mm 6 m/s 761 mmHg 50%
    14:00 +23°C° 0 mm 6 m/s 761 mmHg 52%
    15:00 +23°C° 0 mm 6 m/s 761 mmHg 55%
    16:00 +21°C° 0 mm 6 m/s 761 mmHg 63%
    17:00 +20°C° 0 mm 5 m/s 761 mmHg 71%
    18:00 +17°C° 0 mm 5 m/s 761 mmHg 79%
    19:00 +17°C° 0 mm 5 m/s 761 mmHg 79%
    20:00 +17°C° 0 mm 5 m/s 761 mmHg 79%
    21:00 +16°C° 0 mm 5 m/s 761 mmHg 79%
    22:00 +17°C° 0 mm 4 m/s 760 mmHg 78%
    23:00 +17°C° 0 mm 4 m/s 760 mmHg 77%

    20 Octobre, Samedi

    Heure Température Précipitation Vent Pression Humidité
    00:00 +17°C° 0 mm 4 m/s 760 mmHg 75%
    01:00 +17°C° 0 mm 4 m/s 760 mmHg 75%
    02:00 +17°C° 0 mm 4 m/s 759 mmHg 74%
    03:00 +17°C° 0 mm 3 m/s 759 mmHg 73%
    04:00 +16°C° 0 mm 3 m/s 759 mmHg 72%
    05:00 +16°C° 0 mm 3 m/s 759 mmHg 71%
    06:00 +16°C° 0 mm 3 m/s 759 mmHg 69%
    07:00 +18°C° 0 mm 3 m/s 759 mmHg 62%
    08:00 +20°C° 0 mm 3 m/s 759 mmHg 55%
    09:00 +22°C° 0 mm 3 m/s 759 mmHg 48%
    10:00 +24°C° 0 mm 3 m/s 759 mmHg 45%
    11:00 +25°C° 0 mm 3 m/s 758 mmHg 42%
    12:00 +27°C° 0 mm 3 m/s 758 mmHg 39%
    13:00 +27°C° 0 mm 3 m/s 758 mmHg 41%
    14:00 +26°C° 0 mm 3 m/s 758 mmHg 43%
    15:00 +26°C° 0 mm 3 m/s 758 mmHg 45%
    16:00 +24°C° 0 mm 3 m/s 758 mmHg 54%
    17:00 +21°C° 0 mm 3 m/s 758 mmHg 64%
    18:00 +19°C° 0 mm 2 m/s 758 mmHg 73%
    19:00 +19°C° 0 mm 2 m/s 758 mmHg 73%
    20:00 +19°C° 0 mm 2 m/s 758 mmHg 73%
    21:00 +18°C° 0 mm 2 m/s 759 mmHg 74%
    22:00 +19°C° 0 mm 1 m/s 758 mmHg 73%
    23:00 +19°C° 0 mm 1 m/s 758 mmHg 72%

    21 Octobre, Dimanche

    Heure Température Précipitation Vent Pression Humidité
    00:00 +18°C° 0 mm 1 m/s 758 mmHg 72%
    01:00 +18°C° 0 mm 1 m/s 758 mmHg 71%
    02:00 +18°C° 0 mm 1 m/s 758 mmHg 71%
    03:00 +16°C° 0 mm 0 m/s 758 mmHg 70%
    04:00 +18°C° 0 mm 1 m/s 758 mmHg 70%
    05:00 +16°C° 0 mm 1 m/s 758 mmHg 70%
    06:00 +16°C° 0 mm 1 m/s 757 mmHg 70%
    07:00 +19°C° 0 mm 1 m/s 757 mmHg 65%
    08:00 +20°C° 0 mm 1 m/s 757 mmHg 60%
    09:00 +22°C° 0 mm 1 m/s 757 mmHg 56%
    10:00 +23°C° 0 mm 1 m/s 757 mmHg 52%
    11:00 +24°C° 0 mm 1 m/s 757 mmHg 49%
    12:00 +25°C° 0 mm 2 m/s 756 mmHg 45%
    13:00 +25°C° 0 mm 2 m/s 756 mmHg 46%
    14:00 +25°C° 0 mm 2 m/s 756 mmHg 46%
    15:00 +25°C° 0 mm 2 m/s 755 mmHg 47%
    16:00 +24°C° 0 mm 2 m/s 756 mmHg 54%
    17:00 +23°C° 0 mm 1 m/s 756 mmHg 60%
    18:00 +21°C° 0 mm 1 m/s 756 mmHg 67%
    19:00 +21°C° 0 mm 1 m/s 756 mmHg 70%
    20:00 +20°C° 0 mm 1 m/s 757 mmHg 73%
    21:00 +20°C° 0 mm 1 m/s 757 mmHg 76%
    22:00 +19°C° 0 mm 1 m/s 756 mmHg 77%
    23:00 +19°C° 0 mm 1 m/s 756 mmHg 79%

    22 Octobre, Lundi

    Heure Température Précipitation Vent Pression Humidité
    00:00 +18°C° 0 mm 1 m/s 756 mmHg 80%
    01:00 +18°C° 0 mm 1 m/s 756 mmHg 80%
    02:00 +18°C° 0 mm 1 m/s 756 mmHg 80%
    03:00 +18°C° 0 mm 1 m/s 756 mmHg 80%
    04:00 +18°C° 0 mm 1 m/s 757 mmHg 81%
    05:00 +18°C° 0 mm 1 m/s 757 mmHg 82%
    06:00 +18°C° 0 mm 1 m/s 757 mmHg 83%
    07:00 +18°C° 0 mm 2 m/s 757 mmHg 78%
    08:00 +19°C° 0 mm 2 m/s 757 mmHg 73%
    09:00 +20°C° 0 mm 2 m/s 757 mmHg 68%
    10:00 +23°C° 0 mm 2 m/s 757 mmHg 63%
    11:00 +24°C° 0 mm 2 m/s 757 mmHg 58%
    12:00 +25°C° 0 mm 2 m/s 757 mmHg 54%
    13:00 +25°C° 0 mm 2 m/s 757 mmHg 53%
    14:00 +25°C° 0 mm 2 m/s 757 mmHg 53%
    15:00 +25°C° 0 mm 2 m/s 757 mmHg 53%
    16:00 +24°C° 0.1 mm 2 m/s 757 mmHg 59%
    17:00 +21°C° 0.1 mm 2 m/s 758 mmHg 64%
    18:00 +21°C° 0.1 mm 1 m/s 758 mmHg 70%
    19:00 +20°C° 0.1 mm 1 m/s 758 mmHg 73%
    20:00 +20°C° 0.1 mm 1 m/s 759 mmHg 75%
    21:00 +19°C° 0.1 mm 1 m/s 759 mmHg 78%
    22:00 +19°C° 0 mm 1 m/s 759 mmHg 78%
    23:00 +19°C° 0 mm 1 m/s 759 mmHg 79%
    Voir plus